Time,TemperatureF,DewpointF,PressureIn,WindDirection,WindDirectionDegrees,WindSpeedMPH,WindSpeedGustMPH,Humidity,HourlyPrecipIn,Conditions,Clouds,dailyrainin,SoftwareType,DateUTC
2013-10-22 00:12:00,47.0,42.0,29.82,NW,308,14.0,25.0,83,0.01,,,0.06,,2013-10-22 06:12:00,
2013-10-22 00:22:00,48.0,43.0,29.82,WNW,298,13.0,19.0,82,0.00,,,0.06,,2013-10-22 06:22:00,
2013-10-22 00:42:00,48.0,42.0,29.82,NW,309,13.0,20.0,81,0.00,,,0.06,,2013-10-22 06:42:00,
2013-10-22 00:53:00,47.0,42.0,29.83,WNW,302,13.0,17.0,82,0.00,,,0.06,,2013-10-22 06:53:00,
2013-10-22 01:12:00,47.0,42.0,29.83,NW,309,8.0,17.0,82,0.00,,,0.06,,2013-10-22 07:12:00,
2013-10-22 01:22:00,47.0,42.0,29.84,NW,324,10.0,15.0,82,0.00,,,0.06,,2013-10-22 07:22:00,
2013-10-22 01:42:00,47.0,42.0,29.84,NNW,344,7.0,18.0,83,0.00,,,0.06,,2013-10-22 07:42:00,
2013-10-22 01:52:00,46.0,41.0,29.85,NNW,336,4.0,9.0,83,0.00,,,0.06,,2013-10-22 07:52:00,
2013-10-22 02:12:00,46.0,41.0,29.85,NNW,348,4.0,6.0,83,0.00,,,0.06,,2013-10-22 08:12:00,
2013-10-22 02:22:00,45.0,40.0,29.86,NE,40,2.0,9.0,82,0.00,,,0.06,,2013-10-22 08:22:00,
2013-10-22 02:42:00,43.0,38.0,29.87,NE,39,0.0,8.0,84,0.00,,,0.06,,2013-10-22 08:42:00,
2013-10-22 02:52:00,43.0,39.0,29.88,NE,39,0.0,0.0,85,0.00,,,0.06,,2013-10-22 08:52:00,
2013-10-22 03:11:00,42.0,38.0,29.88,NE,39,0.0,0.0,85,0.00,,,0.06,,2013-10-22 09:11:00,
2013-10-22 03:22:00,42.0,38.0,29.88,NE,39,0.0,0.0,85,0.00,,,0.06,,2013-10-22 09:22:00,
2013-10-22 03:43:00,41.0,37.0,29.88,NE,39,0.0,0.0,86,0.00,,,0.06,,2013-10-22 09:43:00,
2013-10-22 03:54:00,40.0,36.0,29.88,NE,39,0.0,0.0,87,0.00,,,0.06,,2013-10-22 09:54:00,
2013-10-22 04:13:00,40.0,37.0,29.89,NE,39,0.0,0.0,88,0.00,,,0.06,,2013-10-22 10:13:00,
2013-10-22 04:23:00,40.0,37.0,29.89,NE,39,0.0,0.0,90,0.00,,,0.06,,2013-10-22 10:23:00,
2013-10-22 04:43:00,40.0,37.0,29.89,NE,39,0.0,0.0,90,0.00,,,0.05,,2013-10-22 10:43:00,
2013-10-22 04:53:00,40.0,37.0,29.89,NE,39,0.0,1.0,89,0.00,,,0.05,,2013-10-22 10:53:00,
2013-10-22 05:12:00,40.0,37.0,29.89,NE,39,0.0,0.0,89,0.00,,,0.05,,2013-10-22 11:12:00,
2013-10-22 05:22:00,40.0,37.0,29.90,NE,39,0.0,0.0,89,0.00,,,0.05,,2013-10-22 11:22:00,
2013-10-22 05:42:00,39.0,36.0,29.91,NE,39,0.0,3.0,89,0.00,,,0.05,,2013-10-22 11:42:00,
2013-10-22 05:52:00,38.0,35.0,29.91,North,360,4.0,5.0,89,0.00,,,0.05,,2013-10-22 11:52:00,
2013-10-22 06:11:00,38.0,35.0,29.91,North,360,2.0,4.0,90,0.00,,,0.05,,2013-10-22 12:11:00,
2013-10-22 06:22:00,37.0,34.0,29.92,North,360,0.0,0.0,90,0.00,,,0.05,,2013-10-22 12:22:00,
2013-10-22 06:42:00,37.0,34.0,29.92,North,360,0.0,0.0,90,0.00,,,0.05,,2013-10-22 12:42:00,
2013-10-22 06:52:00,37.0,35.0,29.93,North,360,0.0,0.0,91,0.00,,,0.05,,2013-10-22 12:52:00,
2013-10-22 07:12:00,37.0,35.0,29.93,North,360,0.0,0.0,91,0.00,,,0.05,,2013-10-22 13:12:00,
2013-10-22 07:21:00,37.0,35.0,29.93,North,360,0.0,0.0,91,0.00,,,0.05,,2013-10-22 13:21:00,
2013-10-22 07:42:00,37.0,35.0,29.93,North,360,0.0,0.0,91,0.00,,,0.05,,2013-10-22 13:42:00,
2013-10-22 07:53:00,37.0,35.0,29.93,North,360,0.0,0.0,91,0.00,,,0.05,,2013-10-22 13:53:00,
2013-10-22 08:11:00,37.0,35.0,29.94,North,360,0.0,0.0,92,0.00,,,0.05,,2013-10-22 14:11:00,
2013-10-22 08:21:00,37.0,35.0,29.94,North,360,0.0,0.0,92,0.00,,,0.05,,2013-10-22 14:21:00,
2013-10-22 08:42:00,38.0,36.0,29.95,North,360,0.0,0.0,93,0.00,,,0.05,,2013-10-22 14:42:00,
2013-10-22 08:52:00,39.0,37.0,29.95,North,360,0.0,0.0,93,0.00,,,0.05,,2013-10-22 14:52:00,
2013-10-22 09:12:00,39.0,37.0,29.95,North,360,0.0,3.0,93,0.00,,,0.05,,2013-10-22 15:12:00,
2013-10-22 09:22:00,40.0,38.0,29.96,North,360,0.0,0.0,92,0.00,,,0.05,,2013-10-22 15:22:00,
2013-10-22 09:43:00,41.0,39.0,29.95,North,350,1.0,5.0,91,0.00,,,0.05,,2013-10-22 15:43:00,
2013-10-22 09:54:00,43.0,40.0,29.95,North,350,2.0,5.0,89,0.00,,,0.05,,2013-10-22 15:54:00,
2013-10-22 10:13:00,45.0,41.0,29.95,North,5,0.0,4.0,86,0.00,,,0.05,,2013-10-22 16:13:00,
2013-10-22 10:23:00,45.0,39.0,29.95,North,5,5.0,8.0,79,0.00,,,0.05,,2013-10-22 16:23:00,
2013-10-22 10:43:00,46.0,39.0,29.94,NE,52,0.0,5.0,77,0.00,,,0.05,,2013-10-22 16:43:00,
2013-10-22 10:53:00,46.0,39.0,29.95,North,10,7.0,11.0,75,0.00,,,0.05,,2013-10-22 16:53:00,
2013-10-22 11:12:00,47.0,39.0,29.95,NNW,345,6.0,10.0,75,0.00,,,0.05,,2013-10-22 17:12:00,
2013-10-22 11:22:00,47.0,39.0,29.95,NNW,344,6.0,10.0,73,0.00,,,0.05,,2013-10-22 17:22:00,
2013-10-22 11:43:00,48.0,39.0,29.93,NNE,24,2.0,10.0,72,0.00,,,0.05,,2013-10-22 17:43:00,
2013-10-22 11:52:00,49.0,40.0,29.94,NNW,345,3.0,12.0,71,0.00,,,0.05,,2013-10-22 17:52:00,
2013-10-22 12:12:00,49.0,41.0,29.95,NE,39,3.0,10.0,73,0.00,,,0.05,,2013-10-22 18:12:00,
2013-10-22 12:22:00,49.0,39.0,29.94,NNW,327,6.0,12.0,67,0.00,,,0.05,,2013-10-22 18:22:00,
2013-10-22 12:42:00,49.0,39.0,29.93,NW,317,1.0,10.0,68,0.00,,,0.05,,2013-10-22 18:42:00,
2013-10-22 12:52:00,49.0,39.0,29.93,NNW,346,0.0,7.0,67,0.00,,,0.05,,2013-10-22 18:52:00,
2013-10-22 13:12:00,49.0,38.0,29.93,NNW,337,0.0,6.0,66,0.00,,,0.05,,2013-10-22 19:12:00,
2013-10-22 13:22:00,49.0,39.0,29.93,NNW,336,3.0,8.0,67,0.00,,,0.05,,2013-10-22 19:22:00,
2013-10-22 13:42:00,49.0,37.0,29.92,NW,315,5.0,9.0,64,0.00,,,0.04,,2013-10-22 19:42:00,
2013-10-22 13:53:00,50.0,38.0,29.92,NW,315,5.0,8.0,63,0.00,,,0.04,,2013-10-22 19:53:00,
2013-10-22 14:11:00,50.0,38.0,29.91,NW,325,2.0,5.0,63,0.00,,,0.04,,2013-10-22 20:11:00,
2013-10-22 14:22:00,50.0,38.0,29.90,NNW,327,2.0,6.0,63,0.00,,,0.04,,2013-10-22 20:22:00,
2013-10-22 14:43:00,50.0,38.0,29.90,NW,322,0.0,5.0,62,0.00,,,0.01,,2013-10-22 20:43:00,
2013-10-22 14:52:00,51.0,39.0,29.90,NW,322,1.0,6.0,63,0.00,,,0.01,,2013-10-22 20:52:00,
2013-10-22 15:12:00,51.0,39.0,29.89,NW,320,0.0,4.0,63,0.00,,,0.01,,2013-10-22 21:12:00,
2013-10-22 15:23:00,51.0,38.0,29.89,NW,316,2.0,7.0,62,0.00,,,0.01,,2013-10-22 21:23:00,
2013-10-22 15:44:00,51.0,37.0,29.89,NW,316,0.0,5.0,59,0.00,,,0.01,,2013-10-22 21:44:00,
2013-10-22 15:54:00,51.0,37.0,29.89,NW,316,0.0,0.0,59,0.00,,,0.01,,2013-10-22 21:54:00,
2013-10-22 16:14:00,51.0,37.0,29.90,NW,316,0.0,4.0,59,0.00,,,0.01,,2013-10-22 22:14:00,
2013-10-22 16:24:00,51.0,38.0,29.89,NW,316,0.0,2.0,60,0.00,,,0.01,,2013-10-22 22:24:00,
2013-10-22 16:44:00,51.0,38.0,29.90,NW,316,0.0,0.0,60,0.00,,,0.01,,2013-10-22 22:44:00,
2013-10-22 16:54:00,51.0,38.0,29.90,NW,316,0.0,0.0,62,0.00,,,0.01,,2013-10-22 22:54:00,
2013-10-22 17:12:00,51.0,38.0,29.90,NW,316,0.0,0.0,62,0.00,,,0.01,,2013-10-22 23:12:00,
2013-10-22 17:23:00,51.0,39.0,29.89,NW,316,0.0,0.0,63,0.00,,,0.01,,2013-10-22 23:23:00,
2013-10-22 17:43:00,50.0,38.0,29.89,NW,316,0.0,0.0,63,0.00,,,0.01,,2013-10-22 23:43:00,
2013-10-22 17:53:00,50.0,39.0,29.88,NW,316,0.0,0.0,66,0.00,,,0.01,,2013-10-22 23:53:00,
2013-10-22 18:11:00,50.0,40.0,29.88,NW,316,0.0,0.0,69,0.00,,,0.01,,2013-10-23 00:11:00,
2013-10-22 18:22:00,49.0,40.0,29.88,NW,316,0.0,0.0,70,0.00,,,0.01,,2013-10-23 00:22:00,
2013-10-22 18:42:00,49.0,40.0,29.88,NW,316,0.0,0.0,70,0.00,,,0.01,,2013-10-23 00:42:00,
2013-10-22 18:52:00,48.0,40.0,29.87,NW,316,0.0,0.0,74,0.00,,,0.01,,2013-10-23 00:52:00,
2013-10-22 19:11:00,48.0,41.0,29.87,NW,316,0.0,0.0,76,0.00,,,0.01,,2013-10-23 01:11:00,
2013-10-22 19:23:00,47.0,39.0,29.87,NW,316,0.0,0.0,75,0.00,,,0.01,,2013-10-23 01:23:00,
2013-10-22 19:42:00,47.0,40.0,29.87,NW,316,0.0,0.0,77,0.00,,,0.01,,2013-10-23 01:42:00,
2013-10-22 19:52:00,47.0,41.0,29.86,NW,316,0.0,0.0,78,0.00,,,0.01,,2013-10-23 01:52:00,
2013-10-22 20:11:00,47.0,41.0,29.86,NW,316,0.0,0.0,80,0.00,,,0.01,,2013-10-23 02:11:00,
2013-10-22 20:22:00,46.0,40.0,29.84,SW,215,4.0,8.0,79,0.00,,,0.01,,2013-10-23 02:22:00,
2013-10-22 20:42:00,46.0,39.0,29.85,SSW,198,0.0,5.0,77,0.00,,,0.01,,2013-10-23 02:42:00,
2013-10-22 20:54:00,46.0,40.0,29.85,SSW,198,1.0,5.0,78,0.00,,,0.01,,2013-10-23 02:54:00,
2013-10-22 21:12:00,46.0,40.0,29.85,SSW,198,0.0,0.0,79,0.00,,,0.01,,2013-10-23 03:12:00,
2013-10-22 21:22:00,46.0,40.0,29.84,SSW,198,0.0,0.0,80,0.00,,,0.01,,2013-10-23 03:22:00,
2013-10-22 21:44:00,45.0,40.0,29.85,SSW,198,0.0,0.0,81,0.00,,,0.01,,2013-10-23 03:44:00,
2013-10-22 21:55:00,45.0,40.0,29.85,SSW,198,0.0,0.0,81,0.00,,,0.01,,2013-10-23 03:55:00,
2013-10-22 22:14:00,45.0,40.0,29.84,SSW,198,0.0,0.0,81,0.00,,,0.01,,2013-10-23 04:14:00,
2013-10-22 22:24:00,45.0,40.0,29.85,SSW,198,1.0,3.0,82,0.00,,,0.01,,2013-10-23 04:24:00,
2013-10-22 22:45:00,44.0,39.0,29.85,SSW,198,0.0,0.0,82,0.00,,,0.01,,2013-10-23 04:45:00,
2013-10-22 22:55:00,44.0,39.0,29.85,SSW,198,0.0,0.0,84,0.00,,,0.01,,2013-10-23 04:55:00,
2013-10-22 23:13:00,44.0,40.0,29.83,SSW,198,0.0,3.0,85,0.00,,,0.01,,2013-10-23 05:13:00,
2013-10-22 23:23:00,43.0,38.0,29.83,SSW,198,0.0,0.0,84,0.00,,,0.01,,2013-10-23 05:23:00,
2013-10-22 23:43:00,42.0,38.0,29.83,SSW,198,0.0,0.0,85,0.00,,,0.00,,2013-10-23 05:43:00,
2013-10-22 23:53:00,42.0,38.0,29.83,SSW,198,0.0,0.0,85,0.00,,,0.00,,2013-10-23 05:53:00,